Location: Cutler
(25.6150°N, 80.3110°W)
Time: 23:37:55
(UTC-04:00)

Cosmos 2360 Rocket - Visible Passes

Search period start: 28 June 2016 00:00
Search period end: 08 July 2016 00:00
Orbit: 834 x 845 km, 71.0° (Epoch: 28 June)

Date Brightness Start Highest point End Pass type
(mag) Time Alt. Az. Time Alt. Az. Time Alt. Az.
28 Jun 4.0 21:04:24 10° NNE 21:07:41 16° ENE 21:10:34 11° E visible
28 Jun 2.7 22:46:25 10° NNW 22:51:51 50° WSW 22:52:21 49° WSW visible
29 Jun 4.0 20:49:01 10° NNE 20:52:00 14° ENE 20:54:58 10° E visible
29 Jun 2.6 22:30:43 10° NNW 22:36:14 55° WSW 22:37:25 46° SSW visible
30 Jun 2.6 22:15:01 10° NNW 22:20:34 59° WSW 22:22:32 38° SSW visible
01 Jul 2.5 21:59:20 10° NNW 22:04:55 64° WSW 22:07:42 30° S visible
02 Jul 2.4 21:43:39 10° NNW 21:49:17 70° WSW 21:52:57 22° S visible
03 Jul 2.3 21:27:58 10° NNW 21:33:38 76° WSW 21:38:15 16° S visible
04 Jul 2.3 21:12:19 10° NNW 21:17:58 82° WSW 21:23:37 10° SSE visible
05 Jul 2.2 20:56:39 10° NNW 21:02:20 88° WSW 21:07:59 10° SSE visible
06 Jul 2.2 20:40:59 10° NNW 20:46:41 86° ENE 20:52:20 10° SSE visible
